, FL

(GMT )
Crestview

Weather History for KEGI - February, 2014

Change the Weather History Date:

Saturday, February 8, 2014

  Actual Average Record
Temperature  
Mean Temperature 54 °F -  
Max Temperature 65 °F - - ()
Min Temperature 42 °F - - ()
Degree Days  
Heating Degree Days 12    
Growing Degree Days 4 (Base 50)    
Moisture  
Dew Point 44 °F    
Average Humidity 88    
Maximum Humidity 100    
Minimum Humidity 47    
Precipitation  
Precipitation 0.16 in - - ()
Sea Level Pressure  
Sea Level Pressure 30.18 in    
Wind  
Wind Speed 3 mph (North)    
Max Wind Speed 7 mph    
Max Gust Speed -    
Visibility 9 miles    
Events Rain    
Averages and records for this station are not official NWS values.
T = Trace of Precipitation, MM = Missing Value Source: NWS Daily Summary

Daily Weather History Graph

Daily Weather History Graph

Search for Another Location

Airport or City:

Trip Planner

Search our weather history database for the weather conditions in past years. The results will help you decide how hot, cold, wet, or windy it might be!

Date:

Astronomy

Feb. 08, 2014 Rise Set
Actual Time 6:32 AM CST 5:28 PM CST
Civil Twilight 6:07 AM CST 5:53 PM CST
Nautical Twilight 5:39 AM CST 6:21 PM CST
Astronomical Twilight 5:10 AM CST 6:50 PM CST
Moon 12:28 PM CST (2/8) 1:39 AM CST (2/8)
Length of Visible Light 11h 45m
Length of Day
10h 55m
Waxing Gibbous, 69% of the Moon is Illuminated
Feb 8
Waxing Gibbous
Feb 14
Full
Feb 22
Last Quarter
Mar 1
New
Mar 8
First Quarter

Hourly Weather History & Observations

Time (CST) Temp. Windchill Dew Point Humidity Pressure Visibility Wind Dir Wind Speed Gust Speed Precip Events Conditions
12:58 AM 43.9 °F - 42.8 °F 96% 30.20 in 9.0 mi NE 2.3 mph - 0.02 in Rain Light Rain
1:58 AM 43.7 °F 42.1 °F 42.8 °F 97% 30.18 in 10.0 mi NE 3.5 mph - 0.03 in Rain Light Rain
2:11 AM 42.8 °F 41.1 °F 42.8 °F 100% 30.17 in 10.0 mi NNE 3.5 mph - N/A   Mostly Cloudy
2:24 AM 42.8 °F - 42.8 °F 100% 30.18 in 10.0 mi North 1.2 mph - N/A Rain Light Rain
2:58 AM 43.5 °F - 43.3 °F 99% 30.18 in 10.0 mi ENE 2.3 mph - 0.03 in   Light Drizzle
3:58 AM 43.7 °F 40.3 °F 43.3 °F 99% 30.21 in 10.0 mi WNW 5.8 mph - 0.02 in Rain Light Rain
4:58 AM 43.5 °F - 43.3 °F 99% 30.22 in 9.0 mi Calm Calm - 0.04 in Rain Light Rain
5:26 AM 42.8 °F - 42.8 °F 100% 30.21 in 10.0 mi NNE 2.3 mph - N/A   Partly Cloudy
5:58 AM 43.2 °F 39.0 °F 43.0 °F 99% 30.23 in 10.0 mi NNW 6.9 mph - 0.01 in   Partly Cloudy
6:58 AM 43.2 °F - 42.8 °F 99% 30.21 in 10.0 mi NNE 2.3 mph - N/A   Mostly Cloudy
7:14 AM 42.8 °F - 42.8 °F 100% 30.21 in 10.0 mi NNE 2.3 mph - N/A Rain Light Rain
7:24 AM 42.8 °F 40.1 °F 42.8 °F 100% 30.21 in 10.0 mi NNE 4.6 mph - N/A   Partly Cloudy
7:29 AM 42.8 °F 40.1 °F 42.8 °F 100% 30.21 in 10.0 mi North 4.6 mph - N/A Rain Light Rain
7:42 AM 42.8 °F 40.1 °F 42.8 °F 100% 30.22 in 10.0 mi North 4.6 mph - N/A   Partly Cloudy
7:58 AM 43.7 °F 42.1 °F 43.5 °F 99% 30.22 in 10.0 mi NNE 3.5 mph - 0.00 in   Partly Cloudy
8:58 AM 46.9 °F - 46.6 °F 99% 30.24 in 10.0 mi Calm Calm - N/A   Clear
9:58 AM 51.1 °F - 45.7 °F 82% 30.24 in 10.0 mi North 2.3 mph - N/A   Partly Cloudy
10:58 AM 55.9 °F - 45.5 °F 68% 30.23 in 10.0 mi NNW 4.6 mph - N/A   Clear
11:58 AM 59.5 °F - 45.7 °F 60% 30.18 in 10.0 mi Variable 5.8 mph - N/A   Clear
12:58 PM 61.5 °F - 44.4 °F 53% 30.14 in 10.0 mi NNE 3.5 mph - N/A   Clear
1:58 PM 64.0 °F - 45.0 °F 50% 30.13 in 10.0 mi North 4.6 mph - N/A   Clear
2:58 PM 64.9 °F - 45.0 °F 48% 30.12 in 10.0 mi Calm Calm - 0.01 in   Clear
3:58 PM 65.3 °F - 44.6 °F 47% 30.13 in 10.0 mi Variable 3.5 mph - N/A   Partly Cloudy
4:58 PM 63.7 °F - 45.0 °F 51% 30.13 in 10.0 mi SSW 6.9 mph - N/A   Clear
5:58 PM 54.1 °F - 48.2 °F 80% 30.14 in 10.0 mi South 6.9 mph - N/A   Clear
6:58 PM 52.9 °F - 45.5 °F 76% 30.15 in 10.0 mi SW 4.6 mph - N/A   Clear
7:58 PM 49.3 °F - 45.1 °F 86% 30.16 in 10.0 mi SW 3.5 mph - N/A   Clear
8:58 PM 46.4 °F - 44.8 °F 94% 30.16 in 10.0 mi Calm Calm - N/A   Clear
9:58 PM 43.7 °F - 43.3 °F 99% 30.17 in 10.0 mi Calm Calm - N/A   Clear
10:58 PM 45.1 °F - 44.8 °F 99% 30.16 in 5.0 mi Calm Calm - N/A   Clear
11:08 PM 42.8 °F - 42.8 °F 100% 30.15 in 1.0 mi North 1.2 mph - N/A   Clear
11:13 PM 44.6 °F - 44.6 °F 100% 30.15 in 0.8 mi NNW 1.2 mph - N/A   Clear
11:18 PM 42.8 °F - 42.8 °F 100% 30.15 in 1.2 mi Calm Calm - N/A   Clear
11:23 PM 42.8 °F - 42.8 °F 100% 30.15 in 1.0 mi NNW 2.3 mph - N/A   Clear
11:33 PM 44.6 °F - 42.8 °F 93% 30.15 in 4.0 mi Calm Calm - N/A   Clear
11:58 PM 43.3 °F - 43.2 °F 99% 30.15 in 10.0 mi Calm Calm - N/A   Clear